Tracking 31027 objects as of 19-Jul-2025
HD Live streaming from Space Station
objects crossing your sky now

EKRAN 1

Track EKRAN 1 now!
EKRAN 1 is classified as:


NORAD ID: 9503
Int'l Code: 1976-107A
Perigee: 35,483.3 km
Apogee: 36,077.4 km
Inclination: 4.4 °
Period: 1,435.4 minutes
Semi major axis: 42151 km
RCS: 3.5481 m2 (large)
Launch date: October 26, 1976
Source: Commonwealth of Independent States (former USSR) (CIS)
Launch site: TYURATAM MISSILE AND SPACE COMPLEX (TTMTR)
Your satellite tracking list
SL-8 R/B
Track 1 satellite(s)




NASA's NSSDC Master Catalog

Two Line Element Set (TLE):
1 09503U 76107A   25199.57343963 -.00000169  00000-0  00000-0 0  9991
2 09503   4.4299 275.1562 0070476 180.1605 131.2131  1.00319564195163
Source of the keplerian elements: AFSPC